Weather Service Report


075 
ASUS43 KLOT 171610
RWRIL 

ILLINOIS REGIONAL WEATHER ROUNDUP
NATIONAL WEATHER SERVICE CHICAGO/ROMEOVILLE IL
1100 AM CDT THU APR 17 2014

NOTE: "FAIR" INDICATES FEW OR NO CLOUDS BELOW 12,000 FEET WITH NO
SIGNIFICANT WEATHER AND/OR OBSTRUCTIONS TO VISIBILITY.

* THESE STATIONS ARE NOT UNDER NWS QUALITY CONTROL. THEY ALSO MAY NOT
  REPORT WEATHER SUCH AS PRECIPITATION OR FOG.

ILZ001-002-007-009-015-016-024-171700-
NORTHWEST ILLINOIS
  
CITY           SKY/WX    TMP DP  RH WIND       PRES   REMARKS
MOLINE         CLOUDY    45  34  65 W12       30.23R                  
STERLING*      CLOUDY    48  36  61 W14       30.20R                  
SAVANNA*       PTSUNNY   45  34  65 W7        30.21R                  
$$

ILZ003-004-008-010-011-017-018-171700-
NORTH CENTRAL ILLINOIS
  
CITY           SKY/WX    TMP DP  RH WIND       PRES   REMARKS
ROCKFORD       CLOUDY    47  36  65 W9G20     30.20R                  
FREEPORT*      CLOUDY    45  37  75 W10G16    30.20R                  
ROCHELLE*      PTSUNNY   50  37  62 W12       30.19R                  
DE KALB*       PTSUNNY   50  38  63 W16G22    30.18R                  
PERU*          MOSUNNY   52  40  63 W12       30.20R                  
$$

ILZ005-006-012>014-019>023-171700-
NORTHEAST ILLINOIS
  
CITY           SKY/WX    TMP DP  RH WIND       PRES   REMARKS
CHICAGO-OHARE  MOSUNNY   54  33  45 SW18      30.16R                  
CHICAGO-MIDWAY PTSUNNY   55  35  47 SW15      30.18R                  
AURORA         MOSUNNY   53  40  61 W15G22    30.18R                  
LANSING*       SUNNY     55  34  44 SW17      30.20R                  
WAUKEGAN       MOSUNNY   52  36  54 SW17G28   30.14R                  
DUPAGE AIRPORT MOSUNNY   54  38  54 SW15G21   30.17R                  
KANKAKEE*      SUNNY     56  36  47 SW17      30.22S                  
WHEELING       SUNNY     54  35  48 SW15G21   30.17R                  
MORRIS*        SUNNY     55  32  42 SW13      30.19R                  
ROMEOVILLE*    SUNNY     55  35  46 W15       30.19R                  
NORTHERLY ISL    N/A     53  31  43 S10         N/A                   
$$

LMZ740>746-171700-
SOUTHERN LAKE MICHIGAN
  
STATION/POSITION SKY/WX   TEMP    WIND        PRES    VSBY  WAVE
                          AIR SEA DIR/SP/G                  HT/PER
                          (F)     (DEG/KT/KT) (MB)    (MI)  (FT/S)
WAUKEGAN HARBOR            50     250/ 15/ 20 1021.7R
HARRISON CRIB              50     200/ 16/ 19   N/A
BURNHAM HARBOR             53     190/ 15/ 15   N/A
CALUMET HARBOR             51     190/ 15/ 18 1022.6R
MICHIGAN CITY              52     190/ 19/ 25   N/A
$$

ILZ025>027-034>036-040-047-049-050-058-095>099-171700-
WEST-CENTRAL ILLINOIS
  
CITY           SKY/WX    TMP DP  RH WIND       PRES   REMARKS
QUINCY         CLOUDY    47  36  65 NW9       30.26R                  
GALESBURG*     CLOUDY    45  37  74 W12       30.24R                  
MACOMB*        CLOUDY    46  36  68 W8G16     30.27R                  
JACKSONVILLE*  PTSUNNY   54  35  49 W10G16    30.25R                  
PITTSFIELD*    CLOUDY    51  38  62 NW7       30.26R                  
$$

ILZ028>032-037-038-041>044-048-051>054-059>061-171700-
CENTRAL ILLINOIS
  
CITY           SKY/WX    TMP DP  RH WIND       PRES   REMARKS
PONTIAC        MOSUNNY   55  36  47 SW13G20   30.22R                  
BLOOMINGTON    SUNNY     54  33  44 W12       30.23R                  
DECATUR          N/A     57  36  45 SW16      30.24S                  
PEORIA         PTSUNNY   52  37  56 W8        30.23R                  
LACON*         MOSUNNY   51  38  62 W9        30.21R                  
LINCOLN*       MOSUNNY   59  34  39 W5        30.23R                  
SPRINGFIELD    MOSUNNY   58  33  39 W14       30.24R                  
TAYLORVILLE    MOSUNNY   54  36  50 SW13      30.25R                  
$$

ILZ033-039-045-046-055>057-062-063-171700-
EAST-CENTRAL ILLINOIS
  
CITY           SKY/WX    TMP DP  RH WIND       PRES   REMARKS
CHAMPAIGN      SUNNY     60  34  37 SW15G28   30.24R                  
RANTOUL*       SUNNY     58  34  39 SW16G22   30.24S                  
MATTOON        SUNNY     58  36  43 S15G23    30.25S                  
PARIS*         SUNNY     60  37  41 SW15G24   30.28R                  
$$

ILZ079-100>102-171700-
SOUTHWEST ILLINOIS
  
CITY           SKY/WX    TMP DP  RH WIND       PRES   REMARKS
ALTON          CLOUDY    57  34  41 S8        30.26R                  
BELLEVILLE     PTSUNNY   61  36  39 SW12      30.25S                  
CAHOKIA*       PTSUNNY   60  35  39 S9        30.25S                  
SPARTA*        MOSUNNY   59  36  41 S8        30.28R                  
$$

ILZ064>066-069>071-074>076-080>082-084>086-088>090-092>094-171700-
SOUTH-CENTRAL ILLINOIS
  
CITY           SKY/WX    TMP DP  RH WIND       PRES   REMARKS
CARBONDALE     SUNNY     62  35  36 S15       30.29R                  
CAIRO*         SUNNY     63  40  43 SW14      30.32R                  
MARION         MOSUNNY   61  37  41 SW12      30.31R                  
MT. VERNON     SUNNY     63  37  39 S15       30.29S                  
CENTRALIA*       N/A     60  35  38 SW13      30.27S                  
SALEM*         SUNNY     61  38  42 SW12      30.27S                  
METROPOLIS*    SUNNY     61  35  37 S6        30.31S                  
$$

ILZ067-068-072-073-078-083-087-091-171700-
SOUTHEAST ILLINOIS
  
CITY           SKY/WX    TMP DP  RH WIND       PRES   REMARKS
FAIRFIELD*     SUNNY     61  39  44 S12G17    30.30R                  
HARRISBURG*    SUNNY     61  35  38 SW12G17   30.32S                  
ROBINSON*      SUNNY     62  36  37 SW10G21   30.30S                  
CARMI*         SUNNY     61  42  49 S16G22    30.31S                  
$$

ABBREVIATIONS USED IN REMARKS
   TC - TEMPERATURE IN CELSIUS
  WCI - WIND CHILL INDEX
   HX - HEAT INDEX
  VSB - VISIBILITY
$$


Return to Home page


Western Regional Climate Center, wrcc@dri.edu